This demonstration page uses our WeatherBlox Daily Observations layout. Learn more.

Left ArrowRight Arrow

Hourly Observations for March 12, 2020

Temp ( °F °C ) Dew Point ( °F °C ) Humidity (%) Winds ( mph kmh ) Pressure ( in mb ) Visibility ( mi km ) Precip ( " mm )
12:53 am 00:53 Mostly Clear 25 -3.9 21 -6.1 85 85 SW 9 15 30.07 1018 10 16 N/A
1:53 am 01:53 Mostly Clear 27 -2.8 21 -6.1 78 78 WSW 10 17 30.09 1019 10 16 N/A
2:53 am 02:53 Partly Cloudy 27 -2.8 22 -5.6 81 81 SW 12 19 30.11 1020 10 16 N/A
3:53 am 03:53 Partly Cloudy 27 -2.8 22 -5.6 81 81 SW 13 20 30.11 1020 10 16 N/A
4:53 am 04:53 Mostly Clear 25 -3.9 21 -6.1 85 85 SW 10 17 30.14 1021 10 16 N/A
5:53 am 05:53 Partly Cloudy 25 -3.9 22 -5.6 88 88 SW 10 17 30.15 1021 10 16 N/A
6:53 am 06:53 Mostly Cloudy 23 -5 21 -6.1 92 92 WSW 7 11 30.17 1022 10 16 N/A
7:53 am 07:53 Mostly Sunny 25 -3.9 21 -6.1 85 85 WSW 8 13 30.17 1022 10 16 N/A
8:53 am 08:53 Cloudy 28 -2.2 23 -5 81 81 SW 10 17 30.18 1022 10 16 N/A
9:53 am 09:53 Cloudy 30 -1.1 23 -5 75 75 W 6 9 30.19 1022 10 16 N/A
10:53 am 10:53 Cloudy with Light Snow 32 undefined 25 -3.9 75 75 WSW 5 7 30.19 1022 5 8 0.00 0.00
11:13 am 11:13 Cloudy 31 -0.6 25 -3.9 79 79 N N/A 30.22 1023 9 14 0.00 0.00
11:31 am 11:31 Cloudy with Light Snow 31 -0.6 26 -3.3 82 82 WSW 3 6 30.22 1023 3 4 0.00 0.00
11:41 am 11:41 Cloudy with Light Snow 32 undefined 27 -2.8 82 82 SW 3 6 30.21 1023 3 5 0.00 0.00
11:53 am 11:53 Cloudy 32 undefined 27 -2.8 82 82 N N/A 30.19 1023 9 14 0.00 0.00
12:30 pm 12:30 Cloudy 32 undefined 26 -3.3 79 79 WNW 6 9 30.20 1023 9 14 0.00 0.00
12:40 pm 12:40 Cloudy 33 0.6 26 -3.3 75 75 W 6 9 30.19 1022 10 16 0.00 0.00
12:53 pm 12:53 Mostly Cloudy 33 0.6 25 -3.9 72 72 SW 10 17 30.19 1022 10 16 0.00 0.00
1:24 pm 13:24 Cloudy with Light Snow 32 undefined 27 -2.8 82 82 SW 14 22 30.20 1023 3 4 0.00 0.00
1:40 pm 13:40 Cloudy 33 0.6 27 -2.8 78 78 SW 14 22 30.19 1022 8 13 0.00 0.00
1:49 pm 13:49 Cloudy with Light Snow 32 undefined 27 -3 80 80 SW 14 22 30.19 1022 5 8 0.00 0.00
1:53 pm 13:53 Cloudy with Light Snow 32 undefined 26 -3.3 79 79 SSW 14 22 30.18 1022 2 3 0.00 0.00
1:59 pm 13:59 Cloudy with Light Snow 31 -0.6 27 -2.8 85 85 SW 14 22 30.21 1023 1 2 0.01 0.25
2:16 pm 14:16 Cloudy with Light Snow 30 -1 25 -4 80 80 W 12 19 30.21 1023 2 3 N/A
2:21 pm 14:21 Cloudy with Light Snow 30 -1.1 25 -3.9 82 82 WSW 7 11 30.21 1023 1 2 0.02 0.51
2:31 pm 14:31 Cloudy with Light Snow 31 -0.6 27 -2.8 85 85 SW 6 9 30.20 1023 2 3 0.02 0.51
2:39 pm 14:39 Cloudy 32 undefined 27 -2.8 82 82 SSW 8 13 30.19 1022 9 14 0.02 0.51
2:53 pm 14:53 Cloudy 33 0.6 27 -2.8 78 78 SSW 9 15 30.17 1022 10 16 0.02 0.51
3:53 pm 15:53 Cloudy 32 undefined 25 -3.9 75 75 N 15 24 30.18 1022 10 16 0.00 0.00
4:00 pm 16:00 Cloudy with Light Snow 30 -1 25 -4 80 80 N 18 30 30.21 1023 3 4 N/A
4:02 pm 16:02 Cloudy with Light Snow 30 -1.1 25 -3.9 82 82 N 16 26 30.21 1023 1 2 0.00 0.00
4:07 pm 16:07 Cloudy with Snow 29 -1.7 26 -3.3 89 89 NNW 16 26 30.22 1023 1 1 0.00 0.00
4:14 pm 16:14 Cloudy with Heavy Snow 29 -1.7 27 -2.8 92 92 N 16 26 30.22 1023 0 0 0.00 0.00
4:26 pm 16:26 Cloudy with Light Snow 30 -1.1 27 -2.8 88 88 N 16 26 30.21 1023 1 1 0.02 0.51
4:30 pm 16:30 Cloudy with Light Snow 30 -1.1 27 -2.8 88 88 N 15 24 30.21 1023 2 2 0.02 0.51
4:34 pm 16:34 Cloudy with Light Snow 30 -1.1 27 -2.8 88 88 N 15 24 30.22 1023 3 5 0.02 0.51
4:53 pm 16:53 Cloudy with Haze 31 -0.6 26 -3.3 82 82 N 17 28 30.19 1023 6 10 0.02 0.51
5:01 pm 17:01 Cloudy 31 -0.6 26 -3.3 82 82 N 15 24 30.21 1023 9 14 N/A
5:08 pm 17:08 Mostly Cloudy 31 -0.6 26 -3.3 82 82 N 14 22 30.21 1023 10 16 N/A
5:16 pm 17:16 Partly Cloudy 29 -1.7 25 -3.9 85 85 N 10 17 30.23 1024 10 16 N/A
5:53 pm 17:53 Mostly Cloudy 30 -1.1 23 -5 75 75 N N/A 30.21 1023 10 16 N/A
6:53 pm 18:53 Cloudy 30 -1.1 23 -5 75 75 WNW 3 6 30.21 1023 10 16 N/A
7:53 pm 19:53 Cloudy 29 -1.7 25 -3.9 85 85 WSW 7 11 30.23 1024 10 16 N/A
8:53 pm 20:53 Cloudy 28 -2.2 25 -3.9 88 88 N N/A 30.25 1024 10 16 N/A
9:53 pm 21:53 Cloudy 27 -2.8 24 -4.4 89 89 SSE 5 7 30.25 1024 8 13 0.00 0.00
10:53 pm 22:53 Clear 25 -3.9 22 -5.6 88 88 N N/A 30.27 1025 10 16 N/A
11:53 pm 23:53 Mostly Clear 22 -5.6 20 -6.7 92 92 N N/A 30.28 1026 10 16 N/A

Powered by AerisWeather